https://gwdoc.icrr.u-tokyo.ac.jp/cgi-bin/DocDB/ShowDocument?docid=15618
JST,Q_mod
2021-05-04,130.9
2021-05-05,140.8
2021-05-06,144.0
2021-05-07,145.3
2021-05-08,143.7
2021-05-09,142.8
2021-05-10,144.0
2021-05-11,143.7
2021-05-12,144.1
2021-05-13,144.7
2021-05-14,146.1
2021-05-15,145.7
2021-05-16,145.6
2021-05-17,143.7
2021-05-18,143.4
2021-05-19,143.2
2021-05-20,142.2
2021-05-21,140.5
2021-05-22,137.2
2021-05-23,132.3
2021-05-24,130.6
2021-05-25,131.5
2021-05-26,136.0
2021-05-27,139.6
2021-05-28,141.7
2021-05-29,142.6
2021-05-30,142.8
2021-05-31,143.7
2021-06-01,142.2
2021-06-02,140.8
2021-06-03,137.8
2021-06-04,133.5
2021-06-05,128.2
2021-06-06,124.0
2021-06-07,120.9
2021-06-08,119.4
2021-06-09,117.8
2021-06-10,116.0
2021-06-11,115.1
2021-06-12,114.8
2021-06-13,114.3
2021-06-14,113.6
2021-06-15,113.8
2021-06-16,113.5
2021-06-17,112.9
2021-06-18,113.3
2021-06-19,112.5
2021-06-20,112.2
2021-06-21,112.4
2021-06-22,113.4
2021-06-23,112.4
2021-06-24,112.3
2021-06-25,112.1
2021-06-26,112.2
2021-06-27,111.5
2021-06-28,111.1
2021-06-29,110.6
2021-06-30,110.0
2021-07-01,109.4
2021-07-02,108.6
2021-07-03,107.5
2021-07-04,106.0
2021-07-05,105.6
2021-07-06,105.2
2021-07-07,104.9
2021-07-08,106.5
2021-07-09,110.0
2021-07-10,111.4
2021-07-11,112.0
2021-07-12,113.3
2021-07-13,115.2
2021-07-14,117.4
2021-07-15,119.9
2021-07-16,123.7
2021-07-17,128.7
2021-07-18,132.7
2021-07-19,131.7
2021-07-20,128.9
2021-07-21,125.6
2021-07-22,122.8
2021-07-23,120.6
2021-07-24,118.8
2021-07-25,115.9
2021-07-26,114.4
2021-07-27,113.4
2021-07-28,112.6
2021-07-29,112.4
2021-07-30,112.4
2021-07-31,112.0
2021-08-01,111.9
2021-08-02,111.4
2021-08-03,111.6
2021-08-04,110.9
2021-08-05,110.8
2021-08-06,110.0
2021-08-07,109.3
2021-08-08,108.1
2021-08-09,106.2
2021-08-10,105.0
2021-08-11,104.4
2021-08-12,103.6
2021-08-13,101.8
2021-08-14,99.6
2021-08-15,98.0
2021-08-16,98.8
2021-08-17,105.4
2021-08-18,110.6
2021-08-19,113.7
2021-08-20,137.7
2021-08-21,145.2
2021-08-22,148.0
2021-08-23,167.9
2021-08-24,168.0
2021-08-25,163.3
2021-08-26,161.2
2021-08-27,155.2
2021-08-28,148.4
2021-08-29,143.5
2021-08-30,142.1
2021-08-31,143.2
2021-09-01,144.2
2021-09-02,142.8
2021-09-03,141.0
2021-09-04,137.9
2021-09-05,135.5
2021-09-06,133.0
2021-09-07,131.3
2021-09-08,129.9
2021-09-09,129.2
2021-09-10,130.5
2021-09-11,130.8
2021-09-12,132.1
2021-09-13,133.2
2021-09-14,135.3
2021-09-15,136.2
2021-09-16,136.9
2021-09-17,136.7
2021-09-18,136.2
2021-09-19,135.2
2021-09-20,134.7
2021-09-21,133.3
2021-09-22,131.2
2021-09-23,128.2
2021-09-24,124.6
2021-09-25,120.3
2021-09-26,114.9
2021-09-27,109.5
2021-09-28,106.8
2021-09-29,105.1
2021-09-30,104.7
2021-10-01,103.9
2021-10-02,104.0
2021-10-03,103.7
2021-10-04,103.0
2021-10-05,102.8
2021-10-06,101.6
2021-10-07,100.6
2021-10-08,99.6
2021-10-09,98.7
2021-10-10,97.2
2021-10-11,96.1
2021-10-12,94.9
2021-10-13,95.9
2021-10-14,96.5
2021-10-15,95.3
2021-10-16,94.1
2021-10-17,93.0
2021-10-18,92.0
2021-10-19,90.8
2021-10-20,90.3
2021-10-21,89.4
2021-10-22,89.0
2021-10-23,88.0
2021-10-24,87.8
2021-10-25,87.8
2021-10-26,89.4
2021-10-27,91.5
2021-10-28,93.2
2021-10-29,94.7
2021-10-30,95.7
2021-10-31,96.7
2021-11-01,97.1
2021-11-02,97.1
2021-11-03,97.0
2021-11-04,96.6
2021-11-05,96.1
2021-11-06,95.8
2021-11-07,94.9
2021-11-08,94.9
2021-11-09,94.6
2021-11-10,92.5
2021-11-11,92.1
2021-11-12,91.6
2021-11-13,91.1
2021-11-14,90.9
2021-11-15,90.3
2021-11-16,88.0
2021-11-17,86.9
2021-11-18,86.2
2021-11-19,85.8
2021-11-20,84.9
2021-11-21,83.9
2021-11-22,83.4
2021-11-23,82.5
2021-11-24,81.6
2021-11-25,80.8
2021-11-26,79.9
2021-11-27,79.2
2021-11-28,78.7
2021-11-29,78.5
2021-11-30,78.3
2021-12-01,78.0
2021-12-02,78.2
2021-12-03,79.2
2021-12-04,80.3
2021-12-05,83.0
2021-12-06,86.0
2021-12-07,89.6
2021-12-08,93.2
2021-12-09,96.5
2021-12-10,102.0
2021-12-11,113.3
2021-12-12,133.3
2021-12-13,150.6
2021-12-14,160.9
2021-12-15,166.8
2021-12-16,167.8
2021-12-17,165.3
2021-12-18,161.3
2021-12-19,158.2
2021-12-20,154.0
2021-12-21,149.0
2021-12-22,144.2
2021-12-23,140.7
2021-12-24,138.4
2021-12-25,136.0
2021-12-26,134.6
2021-12-27,134.1
2021-12-28,134.0
2021-12-29,135.5
2021-12-30,136.1
2021-12-31,
2022-01-01,
2022-01-02,
2022-01-03,
2022-01-04,
2022-01-05,
2022-01-06,
2022-01-07,
2022-01-08,
2022-01-09,
2022-01-10,
2022-01-11,
2022-01-12,
2022-01-13,
2022-01-14,
2022-01-15,
2022-01-16,
2022-01-17,
2022-01-18,
2022-01-19,
2022-01-20,
2022-01-21,
2022-01-22,106.9
2022-01-23,106.2
2022-01-24,105.0
2022-01-25,103.7
2022-01-26,102.6
2022-01-27,101.6
2022-01-28,100.3
2022-01-29,99.2
2022-01-30,98.0
2022-01-31,96.9
2022-02-01,95.7
2022-02-02,94.9
2022-02-03,94.0
2022-02-04,93.3
2022-02-05,92.1
2022-02-06,91.4
2022-02-07,90.5
2022-02-08,89.9
2022-02-09,89.0
2022-02-10,88.0
2022-02-11,87.1
2022-02-12,86.7
2022-02-13,85.8
2022-02-14,85.2
2022-02-15,84.6
2022-02-16,83.9
2022-02-17,82.9
2022-02-18,82.6
2022-02-19,82.4
2022-02-20,81.7
2022-02-21,81.1
2022-02-22,80.7
2022-02-23,80.4
2022-02-24,79.7
2022-02-25,79.6
2022-02-26,79.3
2022-02-27,78.6
2022-02-28,78.1
2022-03-01,77.7
2022-03-02,77.2
2022-03-03,76.5
2022-03-04,76.3
2022-03-05,76.4
2022-03-06,76.1
2022-03-07,76.2
2022-03-08,76.8
2022-03-09,77.7
2022-03-10,79.3
2022-03-11,81.0
2022-03-12,82.4
2022-03-13,84.3
2022-03-14,88.4
2022-03-15,97.3
2022-03-16,119.1
2022-03-17,139.8
2022-03-18,171.2
2022-03-19,
2022-03-20,
2022-03-21,
2022-03-22,
2022-03-23,
2022-03-24,
2022-03-25,
2022-03-26,
2022-03-27,
2022-03-28,
2022-03-29,
2022-03-30,
2022-03-31,
2022-04-01,
2022-04-02,
2022-04-03,
2022-04-04,
2022-04-05,
2022-04-06,
2022-04-07,
2022-04-08,
2022-04-09,
2022-04-10,
2022-04-11,
2022-04-12,
2022-04-13,
2022-04-14,
2022-04-15,
2022-04-16,
2022-04-17,
2022-04-18,
2022-04-19,
2022-04-20,
2022-04-21,
2022-04-22,
2022-04-23,
2022-04-24,
2022-04-25,
2022-04-26,
2022-04-27,
2022-04-28,
2022-04-29,
2022-04-30,
2022-05-01,
2022-05-02,
2022-05-03,
2022-05-04,
2022-05-05,
2022-05-06,
2022-05-07,
2022-05-08,
2022-05-09,
2022-05-10,
2022-05-11,
2022-05-12,
2022-05-13,
2022-05-14,
2022-05-15,
2022-05-16,
2022-05-17,
2022-05-18,
2022-05-19,147.0
2022-05-20,151.8
2022-05-21,154.5
2022-05-22,151.7
2022-05-23,147.4
2022-05-24,144.0
2022-05-25,142.3
2022-05-26,139.2
2022-05-27,136.2
2022-05-28,133.2
2022-05-29,130.8
2022-05-30,126.9
2022-05-31,126.2
2022-06-01,123.9
2022-06-02,121.6
2022-06-03,123.3
2022-06-04,122.0
2022-06-05,120.5
2022-06-06,119.2
2022-06-07,117.1
2022-06-08,115.5
2022-06-09,114.1
2022-06-10,112.5
2022-06-11,110.9
2022-06-12,109.2
2022-06-13,107.6
2022-06-14,106.1
2022-06-15,104.8
2022-06-16,103.1
2022-06-17,101.8
2022-06-18,100.7
2022-06-19,99.2
2022-06-20,98.0
2022-06-21,97.1
2022-06-22,95.7
2022-06-23,94.7
2022-06-24,93.9
2022-06-25,92.6
2022-06-26,91.6
2022-06-27,90.7
2022-06-28,90.0
2022-06-29,88.9
2022-06-30,87.8
2022-07-01,86.8
2022-07-02,86.2
2022-07-03,85.3
2022-07-04,84.4
2022-07-05,83.5
2022-07-06,82.6
2022-07-07,81.7
2022-07-08,81.1
2022-07-09,80.3
2022-07-10,79.7
2022-07-11,79.0
2022-07-12,80.0
2022-07-13,80.2
2022-07-14,79.6
2022-07-15,79.6
2022-07-16,79.0
2022-07-17,78.8
2022-07-18,79.4
2022-07-19,79.3
2022-07-20,80.3
2022-07-21,82.1
2022-07-22,84.1
2022-07-23,87.1
2022-07-24,90.2
2022-07-25,93.1
2022-07-26,96.4
2022-07-27,99.0
2022-07-28,101.2
2022-07-29,102.9
2022-07-30,103.9
2022-07-31,104.5
2022-08-01,104.6
2022-08-02,103.9
2022-08-03,103.2
2022-08-04,102.0
2022-08-05,100.8
2022-08-06,99.6
2022-08-07,98.1
2022-08-08,97.2
2022-08-09,96.0
2022-08-10,94.8
2022-08-11,93.8
2022-08-12,93.1
2022-08-13,92.5
2022-08-14,91.9
2022-08-15,90.8
2022-08-16,89.5
2022-08-17,88.9
2022-08-18,88.5
2022-08-19,
2022-08-20,
2022-08-21,
2022-08-22,
2022-08-23,
2022-08-24,
2022-08-25,
2022-08-26,
2022-08-27,
2022-08-28,
2022-08-29,
2022-08-30,
2022-08-31,
2022-09-01,
2022-09-02,
2022-09-03,
2022-09-04,
2022-09-05,
2022-09-06,
2022-09-07,
2022-09-08,
2022-09-09,
2022-09-10,
2022-09-11,
2022-09-12,
2022-09-13,
2022-09-14,
2022-09-15,
2022-09-16,
2022-09-17,
2022-09-18,
2022-09-19,
2022-09-20,
2022-09-21,
2022-09-22,
2022-09-23,
2022-09-24,
2022-09-25,
2022-09-26,
2022-09-27,
2022-09-28,
2022-09-29,
2022-09-30,
2022-10-01,
2022-10-02,
2022-10-03,
2022-10-04,
2022-10-05,
2022-10-06,
2022-10-07,115.6
2022-10-08,113.9
2022-10-09,111.9
2022-10-10,110.1
2022-10-11,108.3
2022-10-12,108.0
2022-10-13,109.4
2022-10-14,112.3
2022-10-15,116.7
2022-10-16,120.9
2022-10-17,123.8
2022-10-18,125.6
2022-10-19,126.3
2022-10-20,126.2
2022-10-21,125.5
2022-10-22,124.1
2022-10-23,122.6
2022-10-24,120.5
2022-10-25,118.3
2022-10-26,116.3
2022-10-27,114.0
2022-10-28,111.0
2022-10-29,109.2
2022-10-30,107.4
2022-10-31,106.0
2022-11-01,104.6
2022-11-02,103.0
2022-11-03,101.1
2022-11-04,100.2
2022-11-05,97.6
2022-11-06,96.7
2022-11-07,96.1
2022-11-08,94.1
2022-11-09,92.1
2022-11-10,90.9
2022-11-11,89.7
2022-11-12,88.7
2022-11-13,87.4
2022-11-14,86.6
2022-11-15,85.9
2022-11-16,85.3
2022-11-17,84.1
2022-11-18,82.2
2022-11-19,81.2
2022-11-20,79.9
2022-11-21,79.2
2022-11-22,77.9
2022-11-23,77.5
2022-11-24,76.6
2022-11-25,75.8
2022-11-26,75.3
2022-11-27,74.4
2022-11-28,74.4
2022-11-29,74.5
2022-11-30,74.7
2022-12-01,76.2
2022-12-02,77.8
2022-12-03,79.8
2022-12-04,81.5
2022-12-05,84.1
2022-12-06,85.1
2022-12-07,85.8
2022-12-08,86.9
2022-12-09,88.0
2022-12-10,88.4
2022-12-11,88.6
2022-12-12,88.9
2022-12-13,88.9
2022-12-14,88.9
2022-12-15,89.2
2022-12-16,89.0
2022-12-17,88.8
2022-12-18,88.2
2022-12-19,87.9
2022-12-20,87.5
2022-12-21,87.7
2022-12-22,87.8
2022-12-23,87.0
2022-12-24,86.9
2022-12-25,87.0
2022-12-26,86.8
2022-12-27,87.7
2022-12-28,88.5
2022-12-29,89.6
2022-12-30,90.5
2022-12-31,91.3
2023-01-01,91.6
2023-01-02,91.6
2023-01-03,91.0
2023-01-04,90.0
2023-01-05,90.1
2023-01-06,90.3
2023-01-07,90.1
2023-01-08,89.0
2023-01-09,88.6
2023-01-10,86.9
2023-01-11,86.2
2023-01-12,85.6
2023-01-13,85.3
2023-01-14,85.5
2023-01-15,85.8
2023-01-16,85.5
2023-01-17,85.5
2023-01-18,87.1
2023-01-19,92.9
2023-01-20,98.0
2023-01-21,102.8
2023-01-22,106.9
2023-01-23,109.9
2023-01-24,111.5
2023-01-25,112.4
2023-01-26,113.5
2023-01-27,112.8
2023-01-28,111.3
2023-01-29,110.2
2023-01-30,109.4
2023-01-31,108.2
2023-02-01,106.2
2023-02-02,105.2
2023-02-03,103.8
2023-02-04,102.0
2023-02-05,100.1
2023-02-06,98.4
2023-02-07,96.4
2023-02-08,94.9
2023-02-09,92.3
2023-02-10,91.3
2023-02-11,89.6
2023-02-12,88.8
2023-02-13,88.3
2023-02-14,88.0
2023-02-15,89.5
2023-02-16,92.4
2023-02-17,96.7
2023-02-18,100.8
2023-02-19,103.1
2023-02-20,104.8
2023-02-21,106.2
2023-02-22,108.9
2023-02-23,112.7
2023-02-24,117.6
2023-02-25,122.6
2023-02-26,126.5
2023-02-27,129.0
2023-02-28,129.5
2023-03-01,129.6
2023-03-02,127.8
2023-03-03,126.9
2023-03-04,127.0
2023-03-05,130.2
2023-03-06,133.7
2023-03-07,137.0
2023-03-08,140.8
2023-03-09,145.4
2023-03-10,146.1
2023-03-11,148.7
2023-03-12,163.1
2023-03-13,172.2
2023-03-14,
2023-03-15,172.1
2023-03-16,
2023-03-17,
2023-03-18,178.6
2023-03-19,178.3
2023-03-20,180.3
2023-03-21,170.2
2023-03-22,156.1
2023-03-23,172.8
2023-03-24,175.4
2023-03-25,
2023-03-26,169.1
2023-03-27,175.9
2023-03-28,169.6
2023-03-29,167.4
2023-03-30,173.9
2023-03-31,175.2
2023-04-01,173.1
2023-04-02,171.5
2023-04-03,171.2
2023-04-04,169.5
2023-04-05,167.3
2023-04-06,164.7
2023-04-07,162.2
2023-04-08,159.2
2023-04-09,156.0
2023-04-10,153.8
2023-04-11,154.9
2023-04-12,152.7
2023-04-13,150.7
2023-04-14,149.1
2023-04-15,147.8
2023-04-16,145.9
2023-04-17,144.2
2023-04-18,143.1
2023-04-19,141.2
2023-04-20,139.6
2023-04-21,137.3
2023-04-22,134.6
2023-04-23,132.8
2023-04-24,130.6
2023-04-25,128.7
2023-04-26,125.9
2023-04-27,123.2
2023-04-28,121.2
2023-04-29,119.1
2023-04-30,117.8
2023-05-01,117.2
2023-05-02,116.0
2023-05-03,115.8
2023-05-04,115.6
2023-05-05,115.7
2023-05-06,116.0
2023-05-07,115.5
2023-05-08,115.0
2023-05-09,115.6
2023-05-10,119.7
2023-05-11,130.4
2023-05-12,143.3
2023-05-13,155.9
2023-05-14,165.0
2023-05-15,168.6
2023-05-16,168.8
2023-05-17,166.8
2023-05-18,163.4
2023-05-19,159.1
2023-05-20,154.5
2023-05-21,150.8
2023-05-22,146.8
2023-05-23,143.7
2023-05-24,140.3
2023-05-25,137.7
2023-05-26,135.8
2023-05-27,133.4
2023-05-28,130.2
2023-05-29,127.3
2023-05-30,124.7
2023-05-31,121.3
2023-06-01,118.6
2023-06-02,116.5
2023-06-03,115.0
2023-06-04,114.7
2023-06-05,116.0
2023-06-06,122.3
2023-06-07,129.5
2023-06-08,135.9
2023-06-09,138.3
2023-06-10,139.8
2023-06-11,139.9
2023-06-12,139.6
2023-06-13,138.5
2023-06-14,137.6
2023-06-15,135.2
2023-06-16,131.8
2023-06-17,128.8
2023-06-18,125.3
2023-06-19,123.6
2023-06-20,122.6
2023-06-21,121.0
2023-06-22,119.2
2023-06-23,117.8
2023-06-24,116.5
2023-06-25,115.2
2023-06-26,114.0
2023-06-27,112.7
2023-06-28,110.8
2023-06-29,109.2
2023-06-30,108.0
2023-07-01,106.1
2023-07-02,104.3
2023-07-03,103.4
2023-07-04,103.7
2023-07-05,107.2
2023-07-06,113.2
2023-07-07,120.4
2023-07-08,125.5
2023-07-09,128.3
2023-07-10,130.1
2023-07-11,130.2
2023-07-12,130.4
2023-07-13,130.8
2023-07-14,134.1
2023-07-15,137.8
2023-07-16,141.1
2023-07-17,146.5
2023-07-18,151.9
2023-07-19,156.3
2023-07-20,157.0
2023-07-21,156.3
2023-07-22,154.7
2023-07-23,151.5
2023-07-24,148.7
2023-07-25,144.4
2023-07-26,141.1
2023-07-27,138.2
2023-07-28,135.6
2023-07-29,133.5
2023-07-30,129.8
2023-07-31,127.2
2023-08-01,124.0
2023-08-02,121.1
2023-08-03,118.3
2023-08-04,115.9
2023-08-05,113.4
2023-08-06,111.3
2023-08-07,109.3
2023-08-08,107.7
2023-08-09,106.0
2023-08-10,103.9
2023-08-11,102.4
2023-08-12,101.0
2023-08-13,99.5
2023-08-14,97.9
2023-08-15,96.8
2023-08-16,95.4
2023-08-17,94.1
2023-08-18,92.8
2023-08-19,91.5
2023-08-20,90.5
2023-08-21,89.4
2023-08-22,88.3
2023-08-23,87.2
2023-08-24,86.0
2023-08-25,84.3
2023-08-26,83.6
2023-08-27,82.4
2023-08-28,81.6
2023-08-29,80.4
2023-08-30,79.5
2023-08-31,78.9
2023-09-01,77.7
2023-09-02,77.2
2023-09-03,76.2
2023-09-04,75.3
2023-09-05,74.6
2023-09-06,73.9
2023-09-07,73.4
2023-09-08,72.5
2023-09-09,72.1
2023-09-10,71.2
2023-09-11,70.5
2023-09-12,69.9
2023-09-13,69.2
2023-09-14,68.6
2023-09-15,68.1
2023-09-16,67.6
2023-09-17,67.0
2023-09-18,66.6
2023-09-19,65.7
2023-09-20,65.3
2023-09-21,64.7
2023-09-22,64.1
2023-09-23,63.5
2023-09-24,63.1
2023-09-25,62.5
2023-09-26,62.0
2023-09-27,62.2
2023-09-28,62.2
2023-09-29,61.7
2023-09-30,61.3
2023-10-01,60.7
2023-10-02,60.2
2023-10-03,59.8
2023-10-04,59.6
2023-10-05,58.7
2023-10-06,58.5
2023-10-07,58.2
2023-10-08,57.8
2023-10-09,57.5
2023-10-10,57.0
2023-10-11,56.5
2023-10-12,56.0
2023-10-13,55.7
2023-10-14,55.1
2023-10-15,54.7
2023-10-16,54.2
2023-10-17,53.9
2023-10-18,52.9
2023-10-19,52.6
2023-10-20,52.3
2023-10-21,51.6
2023-10-22,51.3
2023-10-23,51.4
2023-10-24,51.8
2023-10-25,51.5
2023-10-26,51.2
2023-10-27,50.9
2023-10-28,50.6
2023-10-29,50.6
2023-10-30,50.3
2023-10-31,50.1
2023-11-01,49.1
2023-11-02,48.9
2023-11-03,48.7
2023-11-04,48.4
2023-11-05,48.3
2023-11-06,48.2
2023-11-07,47.7
2023-11-08,47.5
2023-11-09,47.4
2023-11-10,47.4
2023-11-11,46.9
2023-11-12,46.7
2023-11-13,46.5
2023-11-14,46.3
2023-11-15,46.4
2023-11-16,46.2
2023-11-17,45.8
2023-11-18,45.2
2023-11-19,45.1
2023-11-20,45.1
2023-11-21,45.1
2023-11-22,45.3
2023-11-23,45.4
2023-11-24,45.8
2023-11-25,46.5
2023-11-26,47.6
2023-11-27,48.9
2023-11-28,50.2
2023-11-29,51.8
2023-11-30,53.0
2023-12-01,53.9
2023-12-02,54.5
2023-12-03,54.9
2023-12-04,55.3
2023-12-05,55.9
2023-12-06,56.5
2023-12-07,56.9
2023-12-08,57.5
2023-12-09,58.4
2023-12-10,58.7
2023-12-11,59.2
2023-12-12,59.7
2023-12-13,59.7
2023-12-14,59.9
2023-12-15,60.1
2023-12-16,59.8
2023-12-17,59.7
2023-12-18,60.1
2023-12-19,60.5
2023-12-20,61.2
2023-12-21,62.0
2023-12-22,62.6
2023-12-23,63.6
2023-12-24,64.9
2023-12-25,66.0
2023-12-26,66.6
2023-12-27,66.8
2023-12-28,67.4
2023-12-29,67.4
2023-12-30,67.6
2023-12-31,67.0
2024-01-01,78.3
2024-01-02,88.4
2024-01-03,83.7
2024-01-04,82.2
2024-01-05,83.5
2024-01-06,85.0
2024-01-07,87.3
2024-01-08,88.1
2024-01-09,90.7
2024-01-10,92.0
2024-01-11,92.7
2024-01-12,94.8
2024-01-13,96.0
2024-01-14,95.2
2024-01-15,94.5
2024-01-16,92.0
2024-01-17,92.0
2024-01-18,91.4
2024-01-19,90.6
2024-01-20,89.8
2024-01-21,88.8
2024-01-22,87.9
2024-01-23,88.3
2024-01-24,89.3
